Other Public Products
Issued by NWS Grand Forks, ND

Home | Current Version | Previous Version | Text Only | Print | Product List | Glossary On
Versions: 1 2 3 4 5 6 7 8 9 10 11 12 13 14 15 16 17 18 19 20 21 22 23 24 25 26 27 28 29 30 31 32 33 34 35 36 37 38 39 40 41 42 43 44 45 46 47 48 49 50
000
FPUS83 KFGF 151810
OPUFGF
PRAIRIE TO PINES WEATHER ROUNDUP
NATIONAL WEATHER SERVICE EASTERN NORTH DAKOTA/GRAND FORKS ND
1200 PM CST FRI DEC 15 2017

 **SATELLITE DATA USED TO AUGMENT SKY COVER AT AUTOMATED STATIONS**
 *****  WEATHER ACROSS EASTERN NORTH DAKOTA  *****

CITY           SKY/WX    TMP DP  RH WIND       PRES   REMARKS
GRAND FORKS    CLOUDY    20  16  84 S14       29.77F WCI   7
6HR MIN TEMP:  17; 6HR MAX TEMP:  20; 6HR PCP:  0.01;

GRND FORKS AFB FLURRIES  19  16  86 S12       29.75F WCI   7
GRND FORKS NWS   N/A     19 N/A N/A S9          N/A  WCI   9
BUXTON         NOT AVBL
DEVILS LAKE    FAIR      26  24  92 S8        29.67F WCI  18
6HR MIN TEMP:  21; 6HR MAX TEMP:  26; 6HR PCP: TRACE;

FARGO          CLOUDY    23  18  81 SE10      29.77F WCI  12
6HR MIN TEMP:  19; 6HR MAX TEMP:  23; 6HR PCP: TRACE;

WAHPETON ARPT  MOCLDY    27  21  80 SE7       29.80F WCI  19
$$

 *****  WEATHER ACROSS CENTRAL AND WESTERN NORTH DAKOTA  *****

CITY           SKY/WX    TMP DP  RH WIND       PRES   REMARKS
JAMESTOWN      PTSUNNY   28  26  92 S9        29.69F WCI  19
6HR MIN TEMP:  23; 6HR MAX TEMP:  28;

BISMARCK       CLOUDY    36  25  64 SW5       29.67F
6HR MIN TEMP:  28; 6HR MAX TEMP:  36;

MINOT          CLOUDY    37  26  64 SW10      29.59F
6HR MIN TEMP:  30; 6HR MAX TEMP:  37;

MINOT AFB      FAIR      36  26  67 SW7       29.58F
6HR MIN TEMP:  28; 6HR MAX TEMP:  36;

GARRISON         N/A     36  26  67 SW9       29.62F
6HR MIN TEMP:  29; 6HR MAX TEMP:  36;

WILLISTON      CLOUDY    39  23  52 W6        29.61F
DICKINSON      FAIR      41  23  48 W20       29.62F
6HR MIN TEMP:  29; 6HR MAX TEMP:  41;

HETTINGER      FAIR      40  23  50 W20       29.70F
6HR MIN TEMP:  25; 6HR MAX TEMP:  40;

$$

 *****  OTHER OBSERVATIONS NORTHEAST NORTH DAKOTA  *****

CITY           SKY/WX    TMP DP  RH WIND       PRES   REMARKS
WALHALLA       FAIR      19  19 100 S10       29.72F WCI   8
LANGDON        FAIR      25  25 100 S13       29.67F WCI  13
CAVALIER       CLOUDY    18  16  93 SE9       29.74F WCI   6
GRAFTON        CLOUDY    19  18  93 SE15      29.77F WCI   5
CANDO          CLOUDY    28  28 100 S8        29.68F WCI  20
FORT TOTTEN      N/A     27  26  94 S7        29.95S WCI  19
ROLLA          CLOUDY    27  27 100 SW8       29.63F WCI  18
RUGBY          FAIR      30  28  93 S7        29.65F WCI  23
 ***** THE ABOVE OBSERVATIONS ARE NON NWS ARE NOT QUALITY
        CONTROLLED AND MAY MIS-REPORT RAIN FOR SNOW...
$$

 *****  OTHER OBSERVATIONS SOUTHEAST NORTH DAKOTA *****

CITY           SKY/WX    TMP DP  RH WIND       PRES   REMARKS
COOPERSTOWN    MOCLDY    23  23 100 S10       29.71F WCI  12
VALLEY CITY    MOCLDY    25  25 100 S9        29.73F WCI  15
OAKES            N/A     28  28 100 S5        29.75F WCI  23
GWINNER          N/A     28  27  93 CALM      29.75F
SHEYENNE NWR     N/A     26  25  95 S8        29.95S WCI  18
BUFFALO        NOT AVBL
WYNDMERE       NOT AVBL
 ***** THE ABOVE OBSERVATIONS ARE NON NWS ARE NOT QUALITY
       CONTROLLED AND MAY MIS-REPORT RAIN FOR SNOW...
$$

  *****  WEATHER ACROSS NORTHERN MINNESOTA  *****

CITY           SKY/WX    TMP DP  RH WIND       PRES   REMARKS
FLAG ISLAND    CLOUDY     7   3  85 SE5       29.77F WCI  -2
WARROAD        PTSUNNY    9   5  85 S3        29.79F
ROSEAU         CLOUDY    10   7  85 SE6       29.79F WCI   1
HALLOCK        FLURRIES  16  12  86 SE13      29.76F WCI   2
THF RVR FALLS  CLOUDY    15  11  83 SE10      29.78F WCI   2
6HR MIN TEMP:   6; 6HR MAX TEMP:  15; 6HR PCP: TRACE;

HALSTAD        NOT AVBL
FOSSTON        CLOUDY    14  10  85 SE5       29.78F WCI   6
BAUDETTE       CLOUDY     7   3  84 S3        29.78F
6HR MIN TEMP:   6; 6HR MAX TEMP:   8;

WASKISH        FLURRIES  10   7  85 SW3       29.80F
CROOKSTON      CLOUDY    18  16  93 S10       29.79F WCI   6
$$
  *****  WEATHER ACROSS CENTRAL AND WEST MINNESOTA  *****

CITY           SKY/WX    TMP DP  RH WIND       PRES   REMARKS
BEMIDJI        PTSUNNY   11   6  81 SW3       29.79F
6HR MIN TEMP:   7; 6HR MAX TEMP:  11;

PARK RAPIDS    CLOUDY    14   9  80 CALM      29.79F
6HR MIN TEMP:   5; 6HR MAX TEMP:  13;

WADENA         CLOUDY    18  12  79 CALM      29.80F
DETROIT LAKES  CLOUDY    21  18  86 SE7       29.79F WCI  13
MOORHEAD       CLOUDY    21  18  86 S9        29.79F WCI  11
FERGUS FALLS   PTSUNNY   23  19  86 S7        29.83F WCI  15
ELBOW LAKE     CLOUDY    24  21  88 S6        29.81S WCI  17
6HR MIN TEMP:  20; 6HR MAX TEMP:  24;

MORRIS MN      PTSUNNY   27  23  86 SE8       29.80F WCI  18
STAPLES        CLOUDY    18  10  73 CALM      29.81F
WHEATON        CLOUDY    27  23  86 SE9       29.82F WCI  17
$$
  *****  WEATHER ELSEWHERE ACROSS MINNESOTA  *****

CITY           SKY/WX    TMP DP  RH WIND       PRES   REMARKS
DULUTH         PTSUNNY    9   3  77 NW9       29.79F WCI  -4
6HR MIN TEMP:   8; 6HR MAX TEMP:  11; 6HR PCP: TRACE;

INTRNTL FALLS  CLOUDY     7   1  76 CALM      29.80F
6HR MIN TEMP:   5; 6HR MAX TEMP:   8;

ELY            PTSUNNY    9   1  72 W7        29.77F WCI  -3
CLOQUET        FLURRIES  12   3  67 W6        29.81F WCI   3
BRAINERD       CLOUDY    18  10  71 SW6       29.81F WCI  10
6HR MIN TEMP:  13; 6HR MAX TEMP:  18;

HIBBING        CLOUDY     8   1  73 CALM      29.79F
6HR MIN TEMP:   2; 6HR MAX TEMP:   8; 6HR PCP: TRACE;

ALEXANDRIA     PTSUNNY   23  16  74 SE3       29.79F
6HR MIN TEMP:  19; 6HR MAX TEMP:  23;

SAINT CLOUD    CLOUDY    22  15  75 CALM      29.84F
6HR MIN TEMP:  16; 6HR MAX TEMP:  22;

MINNEAPOLIS    CLOUDY    25  19  78 VRB5      29.86F WCI  19
6HR MIN TEMP:  22; 6HR MAX TEMP:  26;

$$

  *****  WEATHER ACROSS SOUTH DAKOTA  *****

CITY           SKY/WX    TMP DP  RH WIND       PRES   REMARKS
SIOUX FALLS    PTSUNNY   38  27  64 SW9       29.84F
6HR MIN TEMP:  31; 6HR MAX TEMP:  38;

BROOKINGS      FAIR      34  27  75 W8        29.80F
WATERTOWN      FAIR      31  28  89 SW12      29.77F WCI  22
6HR MIN TEMP:  25; 6HR MAX TEMP:  31;

HURON          FAIR      38  26  62 S8        29.80F
6HR MIN TEMP:  30; 6HR MAX TEMP:  38;

SISSETON         N/A     29  27  92 S9        29.77F WCI  20
ABERDEEN       PTSUNNY   34  26  72 SW12      29.77F
6HR MIN TEMP:  28; 6HR MAX TEMP:  35;

MITCHELL       FAIR      38  25  59 SW8       29.83F
PIERRE         FAIR      35  24  64 SW16      29.76F
6HR MIN TEMP:  23; 6HR MAX TEMP:  35;

MOBRIDGE       PTSUNNY   38  26  62 S7        29.68F
RAPID CITY     FAIR      48  18  30 S6        29.79F
6HR MIN TEMP:  17; 6HR MAX TEMP:  48;

$$

  *****  SOME WEATHER IN NEARBY STATES *****

CITY           SKY/WX    TMP DP  RH WIND       PRES   REMARKS
GLASGOW MT     FAIR      34  23  64 W5        29.67F
6HR MIN TEMP:  23; 6HR MAX TEMP:  34;

GREAT FALLS MT FAIR      47  14  26 SW31G45   29.80R
6HR MIN TEMP:  41; 6HR MAX TEMP:  47;

CHEYENNE WY    FAIR      46  13  26 W28G39    29.98F
6HR MIN TEMP:  32; 6HR MAX TEMP:  46;

SCOTTSBLUFF NE FAIR      51  18  27 W10       29.93F
6HR MIN TEMP:  10; 6HR MAX TEMP:  51;

OMAHA NE       PTSUNNY   42  23  46 SW13      29.98F
6HR MIN TEMP:  34; 6HR MAX TEMP:  42;

DES MOINES IA  CLOUDY    43  24  47 W18       29.95F
6HR MIN TEMP:  29; 6HR MAX TEMP:  43;

DAVENPORT IA   CLOUDY    32  22  66 SW15      29.97F WCI  22
6HR MIN TEMP:  22; 6HR MAX TEMP:  32; 6HR PCP: TRACE;

CHICAGO IL     PTSUNNY   32  15  49 W16       29.91F WCI  21
6HR MIN TEMP:  25; 6HR MAX TEMP:  32; 6HR PCP: TRACE;

EAU CLAIRE WI  CLOUDY    19  12  74 NW8       29.86F WCI   9
6HR MIN TEMP:  16; 6HR MAX TEMP:  19;

LA CROSSE WI   CLOUDY    30  21  69 CALM      29.87F
6HR MIN TEMP:  24; 6HR MAX TEMP:  30;

$$

  *****  SOME NATIONAL WEATHER *****

CITY           SKY/WX    TMP DP  RH WIND       PRES   REMARKS
LA GUARDIA NY  CLOUDY    29  12  49 S5        30.00F WCI  24



USA.gov is the U.S. government's official web portal to all federal, state and local government web resources and services.